Probability
6 6 5 4 4 3 2 1 0 0 0 0 0 0 0 0 0 0 0 0 0 0 0 0 0 0 0 0 0 0 0 0 0 0 0 0 0 0 0 0 0 0 0
6 5 5 4 3 3 2 1 0 0 0 0 0 0 0 0 0 0 0 0 0 0 0 0 0 0 0 0 0 0 0 0 0 0 0 0 0 0 0 0 0 0 0
5 4 4 4 4 2 1 0 0 0 0 0 0 0 0 0 0 0 0 0 0 0 0 0 0 0 0 0 0 0 0 0 0 0 0 0 0 0 0 0 0 0 0
4 4 4 5 5 3 1 0 0 0 0 0 0 0 0 0 0 0 0 0 0 0 0 0 0 0 0 0 0 0 0 0 0 0 0 0 0 0 0 0 0 0 0
4 3 3 4 5 4 2 1 1 0 0 0 0 0 0 0 0 0 0 0 0 0 0 0 0 0 0 0 0 0 0 0 0 0 0 0 0 0 0 0 0 0 0
3 3 3 4 4 4 3 3 2 1 0 0 0 0 0 0 0 0 0 0 0 0 0 0 0 0 0 0 0 0 0 0 0 0 0 0 0 0 0 0 0 0 0
4 4 4 4 5 4 3 3 2 1 0 0 0 0 0 0 0 0 0 0 0 0 0 0 0 0 0 0 0 0 0 0 0 0 0 0 0 0 0 0 0 0 0
6 6 6 6 6 5 4 3 2 1 0 0 0 0 0 0 0 0 0 0 0 0 0 0 0 0 0 0 0 0 0 0 0 0 0 0 0 0 0 0 0 0 0
9 10 9 8 6 4 3 3 2 1 0 0 0 0 0 0 0 0 0 0 0 0 0 0 0 0 0 0 0 0 0 0 0 0 0 0 0 0 0 0 0 0 0
11 11 10 8 5 3 3 3 2 1 0 0 0 0 0 0 0 0 0 0 0 0 0 0 0 0 0 0 0 0 0 0 0 0 0 0 0 0 0 0 0 0 0
10 8 6 4 3 2 2 1 1 0 0 0 0 0 0 0 0 0 0 0 0 0 0 0 0 0 0 0 0 0 0 0 0 0 0 0 0 0 0 0 0 0 0
5 3 1 1 1 1 1 0 0 0 0 0 0 0 0 0 0 0 0 0 0 0 0 0 0 0 0 0 0 0 0 0 0 0 0 0 0 0 0 0 0 0 0
2 1 0 0 0 0 0 0 0 0 0 0 0 0 0 0 0 0 0 0 0 0 0 0 0 0 0 0 0 0 0 0 0 0 0 0 0 0 0 0 0 0 0
0 0 0 0 0 0 0 0 0 0 0 0 0 0 0 0 0 0 0 0 0 0 0 0 0 0 0 0 0 0 0 0 0 0 0 0 0 0 0 0 0 0 0
0 0 0 0 0 0 0 0 0 0 0 0 0 0 0 0 0 0 0 0 0 0 0 0 0 0 0 0 0 0 0 0 0 0 0 0 0 0 0 0 0 0 0
0 0 0 0 0 0 0 0 0 0 0 0 0 0 0 0 0 0 0 0 0 0 0 0 0 0 0 0 0 0 0 0 0 0 0 0 0 0 0 0 0 0 0
0 0 0 0 0 0 0 0 0 0 0 0 0 0 0 0 0 0 0 0 0 0 0 0 0 0 0 0 0 0 0 0 0 0 0 0 0 0 0 0 0 0 0
0 0 0 0 0 0 0 0 0 0 0 0 0 0 0 0 0 0 0 0 0 0 0 0 0 0 0 0 0 0 0 0 0 0 0 0 0 0 0 0 0 0 0
0 0 0 0 0 0 0 0 0 0 0 0 0 0 0 0 0 0 0 0 0 0 0 0 0 0 0 0 0 0 0 0 0 0 0 0 0 0 0 0 0 0 0
0 0 0 0 0 0 0 0 0 0 0 0 0 0 0 0 0 0 0 0 0 0 0 0 0 0 0 0 0 0 0 0 0 0 0 0 0 0 0 0 0 0 0
0 0 0 0 0 0 0 0 0 0 0 0 0 0 0 0 0 0 0 0 0 0 0 0 0 0 0 0 0 0 0 0 0 0 0 0 0 0 0 0 0 0 0
0 0 0 0 0 0 0 0 0 0 0 0 0 0 0 0 0 0 0 0 0 0 0 0 0 0 0 0 0 0 0 0 0 0 0 0 0 0 0 0 0 0 0
0 0 0 0 0 0 0 0 0 0 0 0 0 0 0 0 0 0 0 0 0 0 0 0 0 0 0 0 0 0 0 0 0 0 0 0 0 0 0 0 0 0 0
0 0 0 0 0 0 0 0 0 0 0 0 0 0 0 0 0 0 0 0 0 0 0 0 0 0 0 0 0 0 0 0 0 0 0 0 0 0 0 0 0 0 0
0 0 0 0 0 0 0 0 0 0 0 0 0 0 0 0 0 0 0 0 0 0 0 0 0 0 0 0 0 0 0 0 0 0 0 0 0 0 0 0 0 0 0
0 0 0 0 0 0 0 0 0 0 0 0 0 0 0 0 0 0 0 0 0 0 0 0 0 0 0 0 0 0 0 0 0 0 0 0 0 0 0 0 0 0 0
Wind_Speed
7 6 6 6 6 6 5 6 6 6 6 6 6 6 5 5 4 3 2 3 3 2 1 1 1 1 1 1 2 2 1 2 2 2 2 2 2 1 1 0 1 1 2
7 6 6 6 6 6 6 6 6 6 6 6 6 5 5 5 4 4 4 3 3 2 2 1 1 1 1 1 1 2 1 1 2 1 2 2 2 2 2 1 1 1 2
6 6 6 6 6 6 6 6 6 6 6 5 6 5 4 4 4 4 3 3 3 2 2 2 1 2 2 1 2 2 1 1 1 1 1 1 2 2 3 2 3 3 3
7 7 6 6 6 6 6 6 5 5 5 5 5 4 4 3 3 3 3 4 3 3 3 3 2 3 2 2 2 2 2 2 2 2 1 2 2 2 3 3 3 3 3
8 7 7 6 5 5 5 5 5 5 6 5 5 4 4 3 2 3 4 5 5 5 5 5 5 6 6 4 3 2 3 2 2 2 2 2 2 3 2 2 2 3 3
7 7 7 7 7 6 6 6 7 7 6 7 6 5 5 3 4 7 7 6 6 6 6 5 5 7 9 10 10 8 6 4 2 2 1 1 1 1 1 2 2 3 4
7 7 6 7 7 6 7 7 8 7 7 8 7 7 7 7 9 10 11 8 7 6 5 5 5 6 7 6 8 10 10 10 6 2 1 1 1 1 1 2 1 1 3
7 7 7 7 7 7 8 8 8 8 8 8 8 7 8 9 11 12 13 10 9 8 7 6 6 6 6 5 6 6 6 6 6 4 2 1 2 2 1 1 1 2 3
8 8 8 8 9 9 9 9 9 9 9 9 8 8 9 9 12 12 11 8 8 8 7 7 7 6 9 9 6 5 5 5 6 9 8 7 8 8 5 3 3 2 3
7 8 8 8 9 10 10 10 9 10 10 10 9 8 9 9 11 12 11 7 7 5 5 6 8 7 8 8 6 5 5 4 5 6 7 8 7 8 9 4 2 1 1
8 9 9 9 10 10 10 9 11 11 11 11 10 9 9 10 10 11 10 6 5 5 4 3 3 7 8 9 7 4 4 3 4 5 4 5 5 5 5 4 2 1 0
10 11 11 10 10 10 12 10 10 11 12 10 10 9 7 7 9 10 12 10 7 5 4 2 3 7 9 9 7 7 9 7 4 4 4 4 4 4 4 4 4 3 2
13 12 12 12 10 10 11 11 9 9 9 8 7 7 5 5 6 10 11 11 10 5 3 4 6 8 8 7 9 10 8 5 4 4 4 3 3 3 4 4 5 5 5
14 12 11 12 11 10 8 7 7 7 8 7 7 6 5 4 4 4 4 5 7 6 4 6 9 10 8 7 7 6 5 4 3 2 2 3 3 4 4 3 3 4 4
13 12 11 11 11 11 9 7 7 5 6 8 6 5 5 4 2 4 4 3 3 3 4 4 5 4 5 5 4 4 4 4 4 3 3 3 4 4 3 3 3 3 3
12 11 9 9 9 9 10 10 14 11 12 11 9 7 5 5 6 7 8 8 8 8 7 4 4 4 4 3 3 3 3 3 3 3 3 3 3 4 4 4 3 3 4
12 10 8 9 8 8 8 9 8 9 12 11 10 9 8 7 8 8 9 9 9 9 6 4 3 3 2 2 2 2 2 2 2 3 3 3 4 4 4 4 5 5 5
11 11 10 8 8 7 6 6 7 7 6 4 5 7 8 9 9 9 10 9 7 6 3 3 2 2 2 2 1 1 2 2 2 2 3 3 3 4 5 5 5 5 6
9 8 8 7 7 7 6 5 5 6 5 4 3 4 5 7 8 9 8 5 4 3 3 2 2 2 1 1 1 1 1 2 2 2 3 4 4 4 5 5 6 8 7
8 12 10 7 7 6 6 5 5 5 5 4 3 2 2 4 4 4 4 3 3 2 2 2 1 1 1 1 1 1 1 2 2 2 3 4 4 4 5 6 6 6 6
6 8 11 7 6 6 6 5 5 5 4 4 2 3 6 4 3 3 2 2 2 1 1 1 1 0 0 0 1 1 1 2 2 3 4 4 5 5 5 5 6 6 7
6 6 6 6 6 6 6 6 5 5 5 5 3 3 6 4 3 2 2 1 1 1 1 1 1 1 1 1 1 1 1 2 3 4 4 5 5 5 5 6 6 7 7
6 7 6 6 6 8 7 6 5 5 4 4 4 3 3 3 2 2 1 1 0 0 0 1 1 0 0 0 1 1 1 2 3 4 4 5 5 5 6 6 8 9 9
6 7 7 6 6 6 6 5 5 5 5 4 4 3 3 2 2 2 1 1 0 0 0 0 1 2 2 1 0 0 1 2 3 3 5 5 6 6 6 7 8 9 9
6 6 6 6 6 5 5 5 4 4 4 4 3 3 2 2 2 2 1 1 0 0 0 1 1 1 1 2 1 1 3 4 4 4 4 4 6 7 7 8 7 8 8
6 6 5 5 5 5 5 5 4 4 3 3 2 2 2 2 2 2 1 1 1 0 0 1 1 2 2 2 2 2 3 5 6 6 4 4 5 6 7 6 9 8 8
Wind_Direction
157 155 152 157 158 154 158 162 158 156 153 158 161 160 162 161 156 152 164 156 162 173 166 152 192 152 96 68 76 84 95 135 183 280 293 322 13 5 18 297 274 268 272
155 149 150 149 149 148 152 153 148 146 155 160 157 160 168 168 167 169 185 178 175 184 196 165 209 127 90 67 77 74 73 126 155 251 318 345 358 350 7 16 0 357 306
148 147 146 145 147 148 150 150 149 148 148 148 146 154 160 162 167 173 177 179 172 170 170 154 157 119 100 78 76 68 47 51 89 121 341 355 359 10 14 3 10 358 340
152 149 151 152 153 152 150 147 146 143 137 132 126 125 127 128 142 156 145 134 122 105 94 92 85 101 109 99 77 58 60 55 50 68 36 12 8 1 31 7 351 345 337
156 158 158 154 148 144 144 139 133 126 122 114 107 99 93 95 113 133 128 122 114 99 83 73 72 81 79 78 81 70 69 63 53 54 40 28 13 13 5 348 340 324 321
158 162 160 153 149 150 143 128 116 107 103 99 97 94 79 67 83 103 109 106 104 102 92 76 67 61 68 67 68 65 68 74 70 60 45 42 346 330 333 349 350 356 323
158 157 154 153 150 145 137 122 115 111 104 97 91 86 78 63 76 91 97 100 96 92 90 82 73 57 52 58 58 55 50 50 60 95 76 329 293 279 313 330 331 305 277
156 155 150 143 135 126 120 118 113 108 105 99 92 86 80 68 74 86 94 91 86 79 79 81 79 57 50 61 66 57 45 35 38 47 45 327 324 305 259 251 279 302 295
151 149 147 143 136 128 124 120 115 110 102 95 90 85 82 71 70 81 91 92 87 78 74 74 77 69 55 62 68 60 42 21 29 36 36 33 29 31 38 43 18 15 331
140 135 131 130 127 124 122 117 110 108 105 99 87 79 81 75 72 79 86 95 93 85 72 64 65 66 57 60 67 63 47 10 9 20 26 23 27 29 35 44 37 20 325
121 114 111 112 113 114 111 110 111 108 103 98 90 79 72 70 68 72 79 91 101 96 81 58 41 51 56 58 65 66 52 38 28 33 30 23 21 20 16 16 23 53 359
109 105 102 101 106 107 106 106 108 111 108 103 96 83 66 61 64 66 68 74 84 92 82 53 40 55 59 57 57 51 48 48 44 38 33 18 10 1 350 349 350 344 301
104 100 97 93 94 101 107 109 107 106 109 107 99 93 76 59 55 62 68 70 71 78 74 70 68 64 60 55 52 52 49 47 43 39 26 3 342 335 341 345 345 343 333
106 101 98 96 91 84 85 92 102 107 110 110 107 104 92 68 52 46 52 57 56 58 56 60 63 62 61 54 46 43 45 48 53 39 5 343 344 354 355 347 341 340 339
101 99 96 95 96 87 77 67 82 82 115 121 119 120 115 95 61 71 78 62 56 67 73 60 53 51 50 43 37 32 31 31 32 18 12 360 353 351 339 335 336 341 336
107 105 104 102 99 99 99 80 57 73 85 95 106 109 91 101 97 74 67 71 79 87 81 71 65 64 63 54 44 28 22 22 17 14 8 357 347 340 332 330 333 332 321
111 113 112 110 109 107 106 108 98 66 64 75 88 94 96 91 76 69 70 74 75 82 78 75 74 71 67 59 48 36 12 358 6 15 7 353 344 338 334 329 328 326 319
106 111 113 112 113 112 110 113 118 119 106 70 60 76 80 72 66 68 74 72 59 54 73 83 81 79 75 63 39 23 10 5 11 8 359 349 342 335 329 324 320 317 315
104 108 111 115 117 118 119 116 113 112 109 103 75 49 59 67 65 68 74 77 78 64 57 63 75 85 80 67 40 28 32 16 1 350 340 331 326 324 319 315 313 313 313
104 115 117 118 119 120 121 119 116 111 108 105 101 95 73 77 74 60 63 77 83 83 81 76 73 91 93 67 44 43 33 5 345 334 320 315 312 311 308 308 309 309 306
102 111 113 113 119 126 127 126 123 117 116 114 112 116 119 107 108 101 93 92 105 119 129 120 106 99 61 64 88 75 31 333 320 314 310 308 308 308 305 301 302 301 302
101 101 103 105 107 109 114 117 117 117 121 119 110 97 104 101 105 105 107 119 147 162 165 157 160 186 184 173 165 153 328 316 312 311 307 304 306 305 305 304 304 305 305
101 100 98 97 100 105 104 108 114 116 116 118 119 114 110 112 120 127 130 142 130 27 211 132 129 120 121 139 144 149 237 286 287 294 301 304 306 305 304 303 304 307 308
101 105 105 103 102 105 110 112 114 118 121 122 123 127 133 137 139 146 150 144 122 16 5 87 124 143 140 145 166 212 256 276 285 286 293 294 298 300 301 302 303 303 304
103 106 108 111 112 113 114 116 117 119 123 129 133 135 141 142 143 153 166 159 123 59 2 107 140 161 169 172 206 256 290 301 303 302 291 288 291 294 297 300 304 308 307
104 107 110 112 114 118 121 123 126 130 133 136 137 142 148 153 157 163 164 159 157 203 213 172 178 178 189 206 238 266 291 303 309 313 306 291 295 299 308 308 310 312 311